User: anonymous   Login
Location: Unspecified
(0.0000°N, 0.0000°E)
Time: 20:38:44
(UTC+00:00)
Language:

FLTSATCOM F8 - Orbit

View from above orbital plane
View from above orbital plane
View from above satellite
View from above satellite

Ground track
Ground track

The orbit data is extracted from the following two-line orbital elements,

1 20253U 89077A   17079.59205675 0.00000000  00000-0  00000-0 0    09
2 20253  12.8943  15.8549 0008863 198.8291 161.1494  1.00270000    02
Epoch (UTC): 20 March 2017 14:12:33
Eccentricity: 0.0008863
inclination: 12.8943°
perigee height: 35749 km
apogee height: 35824 km
right ascension of ascending node: 15.8549°
argument of perigee: 198.8291°
revolutions per day: 1.00270000
mean anomaly at epoch: 161.1494°
orbit number at epoch: 0

The dashed part of the orbit path shows where the satellite is in the earth's shadow,  

DLR